Location: ?????
(31.8092°N, 35.2590°E)
Time: 18:38:17
(UTC+00:00)

Cosmos 1850 Rocket - Pass Details

Date: 20 June 2021
Orbit: 755 x 785 km, 74.0° (Epoch: 01 August)

Event Time Altitude Azimuth Distance (km) Brightness Sun altitude
Rises 18:43:53 0° 341° (NNW) 3,255 8.4 -20.4°
Reaches altitude 10° 18:46:17 10° 340° (NNW) 2,320 7.5 -20.8°
Maximum altitude 18:51:32 78° 255° (WSW) 788 4.0 -21.5°
Enters shadow 18:53:18 43° 178° (S) 1,072 4.4 -21.8°
